STARLINK-5789, 56003

Orbit data source: Space-Track

STARLINK-5789, 56003 is a payload satellite owned by SpaceX/Seattle (US) in LEO that was launched on Fri, 24 Mar 2023 UTC via an FALCON 9 launch vehicle from the Air Force Eastern Test Range (AFETR). Payload-class satellites include a variety of spacecraft equipped with specific instruments for various scientific and technological missions. These include communications satellites like Starlink; space stations such as the ISS; scientific satellites like the Hubble; Earth observation satellites from companies like Planet Labs, Umbra, and HawkEye 360; GPS; miniature CubeSats for education and research; and military/defense satellites.

Loading next visibility...
Identifier
56003, 2023-042T
Orbit
LEO
Country
Flag of USUS
Related business
Manufacturer
SpaceX/Seattle
Mission
Operational Commercial Communications
Bus & Motor
STARLINK, Unknown motor
Mass
305 kg wet, ~290 kg dry
Launch date (UTC)
2023-03-24 (3 years ago)
Launch vehicle
FALCON 9
Launch site
Air Force Eastern Test Range (AFETR)
Object type
Payload
Rocket body
Debris
Shape & HBR
Box + 1 Pan, 10.1 m
Radar Cross Section
11.087 m², Large (>1 m²)

Expand to show TLE details & history
Last TLE update: 3 days ago

TLE from 3 days ago
0 STARLINK-5789
1 56003U 23042T   26170.15113288  .00000366  00000-0  22813-4 0  9995
2 56003  42.9970 206.8558 0000974 327.6745  32.4047 15.27579956178388
Epoch: 2026-06-19T03:37Z
TLE epoch observation values (Epoch: 2026-06-19T03:37:37.880Z)
Latitude
-0.00002°
Longitude
-114.93628°
Altitude
482.26 km
Speed
7.626 km/s
True Right ascension
13h 47m 25s
True Declination
0° 00' 00"
Sunlit
Object was in full shadow at epoch
Visualization orbit readout
Latitude
Unknown
Longitude
Unknown
Altitude
Unknown
Speed
Unknown
Apparent Right ascension
Unknown
Apparent Declination
Unknown
Sunlit
N/A
Visualization observer readout
Local Sidereal Time
21:25:58
Azimuth
Unknown
Elevation
Unknown
Doppler factor
Unknown
Orbital elements
Apogee altitude
485.663 km
Perigee altitude
484.326 km
Semi-major axis
6,863.132 km
Eccentricity
0.0001
Inclination
42.997°
RAAN
206.8558°
Arg. of periapsis
327.6745°
True anomaly
32.41068°
Mean anomaly
32.4047°
Eccentric anomaly
32.40769°
Mean motion
3.81733 °/min
Orbital period
94.31 mins
BSTAR
0.000022813
Loading maneuver chart data...
Computing Atmospheric mass density...
Loading historical data...
Loading historical data...
Loading historical data...
Loading historical data...
Loading historical data...
Loading historical data...
Loading historical data...

Documentation

Showing up to 5 results
|